timestamp,surface_pressure_avg,surface_temp_avg,battery_voltage,lat,long
2020-04-16 00:09:01+00:00,234.3514,2.18,12.73,47.84626,-54.09684
2020-04-16 00:19:01+00:00,243.2831,2.08,12.65,47.84626,-54.09684
2020-04-16 00:29:01+00:00,234.0864,2.11,12.65,47.84626,-54.09684
2020-04-16 00:39:01+00:00,227.3081,2.3,12.65,47.84626,-54.09684
2020-04-16 00:49:01+00:00,243.0764,2.3,12.65,47.84626,-54.09684
2020-04-16 00:59:01+00:00,268.7214,2.0,12.65,47.84626,-54.09684
2020-04-16 01:09:01+00:00,261.9514,2.0,12.65,47.84626,-54.09684
2020-04-16 01:19:01+00:00,243.7614,2.1,12.65,47.84626,-54.09684
2020-04-16 01:29:01+00:00,253.0681,2.05,12.65,47.84626,-54.09684
2020-04-16 01:39:01+00:00,258.1281,2.14,12.65,47.84626,-54.09684
2020-04-16 01:49:01+00:00,248.1998,2.29,12.65,47.84626,-54.09684
2020-04-16 01:59:01+00:00,236.3714,2.3,12.65,47.84626,-54.09684
2020-04-16 02:09:01+00:00,244.423,2.2,12.65,47.84626,-54.09684
2020-04-16 02:19:01+00:00,246.0164,2.2,12.65,47.84626,-54.09684
2020-04-16 02:29:01+00:00,258.5448,2.1,12.65,47.84626,-54.09684
2020-04-16 02:39:01+00:00,269.8431,1.9,12.65,47.84626,-54.09684
2020-04-16 02:49:01+00:00,279.6431,1.8,12.65,47.84626,-54.09684
2020-04-16 02:59:01+00:00,290.0413,1.7,12.65,47.84626,-54.09684
2020-04-16 03:09:01+00:00,291.3697,1.66,12.65,47.84626,-54.09684
2020-04-16 03:19:01+00:00,272.9197,1.8,12.65,47.84626,-54.09684
2020-04-16 03:29:01+00:00,272.3447,1.87,12.65,47.84626,-54.09684
2020-04-16 03:39:01+00:00,275.5847,1.9,12.65,47.84626,-54.09684
2020-04-16 03:49:01+00:00,266.338,1.9,12.65,47.84626,-54.09684
2020-04-16 03:59:01+00:00,283.2964,1.95,12.65,47.84626,-54.09684
2020-04-16 04:09:01+00:00,303.1164,1.85,12.65,47.84626,-54.09684
2020-04-16 04:19:01+00:00,309.7947,1.8,12.65,47.84626,-54.09684
2020-04-16 04:29:01+00:00,300.0081,1.8,12.65,47.84626,-54.09684
2020-04-16 04:39:01+00:00,324.813,1.6,12.65,47.84626,-54.09684
2020-04-16 04:49:01+00:00,347.1847,1.5,12.65,47.84626,-54.09684
2020-04-16 04:59:01+00:00,340.9529,1.53,12.65,47.84626,-54.09684
2020-04-16 05:09:01+00:00,316.2329,1.6,12.65,47.84626,-54.09684
2020-04-16 05:19:01+00:00,317.1246,1.6,12.65,47.84626,-54.09684
2020-04-16 05:29:01+00:00,326.8013,1.57,12.65,47.84626,-54.09684
2020-04-16 05:39:01+00:00,308.4581,1.67,12.65,47.84626,-54.09684
2020-04-16 05:49:01+00:00,312.3931,1.7,12.65,47.84626,-54.09684
2020-04-16 05:59:01+00:00,339.5064,1.6,12.65,47.84626,-54.09684
2020-04-16 06:09:01+00:00,334.6447,1.57,12.65,47.84626,-54.09684
2020-04-16 06:19:01+00:00,306.2296,1.63,12.65,47.84626,-54.09684
2020-04-16 06:29:01+00:00,327.1463,1.6,12.65,47.84626,-54.09684
2020-04-16 06:39:01+00:00,353.1496,1.6,12.65,47.84626,-54.09684
2020-04-16 06:49:01+00:00,334.3179,1.6,12.65,47.84626,-54.09684
2020-04-16 06:59:01+00:00,312.6263,1.62,12.65,47.84626,-54.09684
2020-04-16 07:09:01+00:00,341.6713,1.6,12.65,47.84626,-54.09684
2020-04-16 07:19:01+00:00,352.3896,1.6,12.65,47.84626,-54.09684
2020-04-16 07:29:01+00:00,318.6446,1.64,12.65,47.84626,-54.09684
2020-04-16 07:39:01+00:00,311.0147,1.6,12.65,47.84626,-54.09684
2020-04-16 07:49:01+00:00,336.213,1.6,12.65,47.84626,-54.09684
2020-04-16 07:59:01+00:00,341.1447,1.55,12.65,47.84626,-54.09684
2020-04-16 08:09:01+00:00,314.303,1.64,12.65,47.84626,-54.09684
2020-04-16 08:19:01+00:00,312.1979,1.69,12.57,47.84626,-54.09684
2020-04-16 08:29:01+00:00,334.2063,1.6,12.57,47.84626,-54.09684
2020-04-16 08:39:01+00:00,317.1946,1.69,12.57,47.84626,-54.09684
2020-04-16 08:49:01+00:00,292.7446,1.78,12.57,47.84626,-54.09684
2020-04-16 08:59:01+00:00,310.9947,1.67,12.57,47.84626,-54.09684
2020-04-16 09:09:01+00:00,328.7946,1.6,12.57,47.84626,-54.09684
2020-04-16 09:19:01+00:00,297.6813,1.68,12.57,47.84626,-54.09684
2020-04-16 09:29:01+00:00,266.3264,1.7,12.57,47.84626,-54.09684
2020-04-16 09:39:01+00:00,293.2931,1.6,12.57,47.84626,-54.09684
2020-04-16 09:49:01+00:00,300.5647,1.69,12.57,47.84626,-54.09684
2020-04-16 09:59:01+00:00,281.6731,1.7,12.57,47.84626,-54.09684
2020-04-16 10:09:01+00:00,256.7814,1.7,12.57,47.84626,-54.09684
2020-04-16 10:19:01+00:00,265.1097,1.6,12.65,47.84626,-54.09684
2020-04-16 10:29:01+00:00,259.3281,1.6,12.65,47.84626,-54.09684
2020-04-16 10:39:01+00:00,248.9247,1.7,12.65,47.84626,-54.09684
2020-04-16 10:49:01+00:00,245.8581,1.75,12.65,47.84626,-54.09684
2020-04-16 10:59:01+00:00,256.6997,1.7,12.65,47.84626,-54.09684
2020-04-16 11:09:01+00:00,257.1081,1.68,12.65,47.84626,-54.09684
2020-04-16 11:19:01+00:00,247.3547,1.7,12.97,47.84626,-54.09684
2020-04-16 11:29:01+00:00,231.3514,1.7,12.97,47.84626,-54.09684
2020-04-16 11:39:01+00:00,238.6464,1.7,12.97,47.84626,-54.09684
2020-04-16 11:49:01+00:00,233.3864,1.7,12.97,47.84626,-54.09684
2020-04-16 11:59:01+00:00,219.5581,1.79,12.97,47.84626,-54.09684
2020-04-16 12:09:01+00:00,221.0547,1.83,12.97,47.84626,-54.09684
2020-04-16 12:19:01+00:00,232.3264,1.8,13.6,47.84626,-54.09684
2020-04-16 12:29:01+00:00,237.7731,1.7,13.6,47.84626,-54.09684
2020-04-16 12:39:01+00:00,227.6914,1.8,13.6,47.84626,-54.09684
2020-04-16 12:49:01+00:00,240.9497,1.8,13.6,47.84626,-54.09684
2020-04-16 12:59:01+00:00,258.4064,1.78,13.6,47.84626,-54.09684
2020-04-16 13:09:01+00:00,240.8914,1.79,13.6,47.84626,-54.09684
2020-04-16 13:19:01+00:00,223.7698,1.8,13.84,47.84626,-54.09684
2020-04-16 13:29:01+00:00,246.4897,1.7,13.84,47.84626,-54.09684
2020-04-16 13:39:01+00:00,246.7864,1.61,13.84,47.84626,-54.09684
2020-04-16 13:49:01+00:00,214.8214,1.7,13.84,47.84626,-54.09684
2020-04-16 13:59:01+00:00,216.8798,1.7,13.84,47.84626,-54.09684
2020-04-16 14:09:01+00:00,253.1697,1.6,13.84,47.84626,-54.09684
2020-04-16 14:19:01+00:00,243.3181,1.65,14.8,47.84626,-54.09684
2020-04-16 14:29:01+00:00,221.5848,1.7,14.8,47.84626,-54.09684
2020-04-16 14:39:01+00:00,246.2048,1.7,14.8,47.84626,-54.09684
2020-04-16 14:49:01+00:00,263.2331,1.65,14.8,47.84626,-54.09684
2020-04-16 14:59:01+00:00,248.7814,1.67,14.8,47.84626,-54.09684
2020-04-16 15:09:01+00:00,237.2714,1.7,14.8,47.84626,-54.09684
2020-04-16 15:19:01+00:00,248.2997,1.66,14.64,47.84626,-54.09684
2020-04-16 15:29:01+00:00,256.3365,1.6,14.64,47.84626,-54.09684
2020-04-16 15:39:01+00:00,242.8414,1.61,14.64,47.84626,-54.09684
2020-04-16 15:49:01+00:00,231.6681,1.7,14.64,47.84626,-54.09684
2020-04-16 15:59:01+00:00,246.0197,1.79,14.64,47.84626,-54.09684
2020-04-16 16:09:01+00:00,256.5414,1.78,14.64,47.84626,-54.09684
2020-04-16 16:19:01+00:00,252.9948,1.7,14.56,47.84626,-54.09684
2020-04-16 16:29:01+00:00,255.3314,1.77,14.56,47.84626,-54.09684
2020-04-16 16:39:01+00:00,271.2647,1.8,14.56,47.84626,-54.09684
2020-04-16 16:49:01+00:00,279.6348,1.6,14.56,47.84626,-54.09684
2020-04-16 16:59:01+00:00,282.853,1.6,14.56,47.84626,-54.09684
2020-04-16 17:09:01+00:00,288.7564,1.69,14.56,47.84626,-54.09684
2020-04-16 17:19:01+00:00,281.6331,1.6,14.48,47.84626,-54.09684
2020-04-16 17:29:01+00:00,288.1963,1.5,14.48,47.84626,-54.09684
2020-04-16 17:39:01+00:00,300.783,1.5,14.48,47.84626,-54.09684
2020-04-16 17:49:01+00:00,303.5714,1.5,14.48,47.84626,-54.09684
2020-04-16 17:59:01+00:00,300.193,1.6,14.48,47.84626,-54.09684
2020-04-16 18:09:01+00:00,317.9446,1.6,14.48,47.84626,-54.09684
2020-04-16 18:19:01+00:00,313.6364,1.6,14.16,47.84626,-54.09684
2020-04-16 18:29:01+00:00,296.3397,1.6,14.16,47.84626,-54.09684
2020-04-16 18:39:01+00:00,297.5013,1.57,14.16,47.84626,-54.09684
2020-04-16 18:49:01+00:00,309.9529,1.5,14.16,47.84626,-54.09684
2020-04-16 18:59:01+00:00,296.4514,1.5,14.16,47.84626,-54.09684
2020-04-16 19:09:01+00:00,296.4513,1.43,14.16,47.84626,-54.09684
2020-04-16 19:19:01+00:00,313.6114,1.44,14.16,47.84626,-54.09684
2020-04-16 19:29:01+00:00,309.6814,1.48,14.16,47.84626,-54.09684
2020-04-16 19:39:01+00:00,300.1263,1.5,14.16,47.84626,-54.09684
2020-04-16 19:49:01+00:00,307.903,1.5,14.16,47.84626,-54.09684
2020-04-16 19:59:01+00:00,322.963,1.5,14.16,47.84626,-54.09684
2020-04-16 20:09:01+00:00,301.6163,1.5,14.16,47.84626,-54.09684
2020-04-16 20:19:01+00:00,295.4697,1.43,13.92,47.84626,-54.09684
2020-04-16 20:29:01+00:00,306.353,1.42,13.92,47.84626,-54.09684
2020-04-16 20:39:01+00:00,310.3796,1.43,13.92,47.84626,-54.09684
2020-04-16 20:49:01+00:00,303.0713,1.42,13.92,47.84626,-54.09684
2020-04-16 20:59:01+00:00,303.9547,1.4,13.92,47.84626,-54.09684
2020-04-16 21:09:01+00:00,312.948,1.4,13.92,47.84626,-54.09684
2020-04-16 21:19:01+00:00,311.1547,1.4,13.44,47.84626,-54.09684
2020-04-16 21:29:01+00:00,304.0681,1.38,13.44,47.84626,-54.09684
2020-04-16 21:39:01+00:00,291.7513,1.33,13.44,47.84626,-54.09684
2020-04-16 21:49:01+00:00,285.5531,1.3,13.44,47.84626,-54.09684
2020-04-16 21:59:01+00:00,285.9114,1.3,13.44,47.84626,-54.09684
2020-04-16 22:09:01+00:00,270.0564,1.34,13.44,47.84626,-54.09684
2020-04-16 22:19:01+00:00,256.1698,1.39,13.21,47.84626,-54.09684
2020-04-16 22:29:01+00:00,260.7864,1.4,13.21,47.84626,-54.09684
2020-04-16 22:39:01+00:00,264.2547,1.4,13.21,47.84626,-54.09684
2020-04-16 22:49:01+00:00,248.3497,1.6,13.21,47.84626,-54.09684
2020-04-16 22:59:01+00:00,248.5615,2.0,13.21,47.84626,-54.09684
2020-04-16 23:09:01+00:00,258.4865,1.96,13.21,47.84626,-54.09684
2020-04-16 23:19:01+00:00,245.3748,2.1,12.81,47.84626,-54.09684
2020-04-16 23:29:01+00:00,227.2098,2.0,12.81,47.84626,-54.09684
2020-04-16 23:39:01+00:00,238.2164,1.8,12.81,47.84626,-54.09684
2020-04-16 23:49:01+00:00,247.2914,1.8,12.81,47.84626,-54.09684
2020-04-16 23:59:01+00:00,228.9864,1.9,12.81,47.84626,-54.09684
